Temp
13 13 14 14 15 15 15 15 16 16 16 16 16 17 17 17 17 17 17 17 17 17 18 17 17 17 18 19 19 19 19 19 19 18 17 17 17 17 18 19 19 19 19 20 20 20 19 19 19 19 22 22 18 18 19 18 18 19 19 18 18 18 17 18 19 18 17 18 18 16 15 15 17 16 15 14 14 15 14 14 14 14 15 14 15 15 14 14
13 14 14 14 15 15 15 16 16 16 16 16 17 17 17 18 18 18 18 17 18 18 18 17 17 17 18 19 19 19 19 19 19 18 17 17 18 18 18 19 19 19 19 20 19 18 19 19 17 17 21 21 18 18 19 17 18 19 18 17 19 18 18 17 18 18 17 18 18 16 15 14 16 16 15 16 16 15 14 15 14 14 15 15 15 14 14 13
14 14 14 14 15 15 16 16 16 16 16 17 17 18 18 18 18 18 18 18 18 18 18 18 17 18 19 19 19 19 19 19 18 17 18 18 18 18 19 19 19 19 19 19 19 18 18 18 17 17 20 20 18 18 19 18 18 18 17 18 19 18 17 16 17 17 17 17 17 16 14 13 15 14 14 15 16 15 15 15 15 15 15 15 15 14 12 12
14 14 14 15 15 16 16 16 16 17 17 17 18 18 18 18 18 18 18 18 18 18 18 18 18 19 19 19 19 19 19 19 18 17 18 18 18 18 19 20 19 19 19 19 20 19 18 17 16 18 20 20 18 17 19 18 18 18 17 19 19 16 17 18 17 17 16 15 15 16 14 14 15 13 14 15 15 16 16 16 15 16 16 16 16 14 10 10
14 15 15 15 16 16 16 16 17 17 17 18 18 18 18 18 18 18 18 18 18 18 18 19 19 19 19 19 20 19 19 19 18 17 18 18 18 18 19 19 19 19 19 19 19 19 19 17 17 19 19 20 19 18 19 17 17 18 18 19 17 15 17 18 17 16 16 14 15 15 15 15 15 13 14 14 14 16 17 17 16 16 17 16 16 15 11 10
15 15 15 16 16 16 16 17 17 17 18 18 18 18 18 18 18 18 18 18 19 18 19 19 19 19 19 19 20 19 19 19 18 18 18 18 19 19 19 19 19 19 19 20 19 19 19 18 18 19 19 19 18 18 18 16 16 18 18 17 16 15 16 17 16 16 15 15 15 15 15 14 15 15 14 14 15 16 18 17 16 16 15 14 14 14 13 12
15 15 16 16 16 17 17 17 17 17 18 18 18 18 18 18 18 18 18 19 19 19 19 19 19 19 19 19 19 19 19 18 18 18 19 19 19 19 19 19 19 20 20 20 19 19 19 19 20 18 18 19 18 17 17 15 15 17 18 17 16 15 15 17 16 15 14 15 16 14 14 14 15 15 14 15 16 16 16 16 15 14 12 11 13 14 14 13
16 16 16 16 17 17 17 17 17 17 18 18 18 19 19 19 18 18 18 19 19 19 19 19 20 20 19 19 19 19 18 18 18 18 19 19 19 19 19 19 19 20 19 19 18 18 18 18 18 17 18 18 16 17 16 16 17 16 17 17 16 15 16 16 14 14 14 14 14 13 14 15 15 14 13 15 16 16 15 15 15 14 13 12 13 13 13 13
16 16 16 17 17 17 17 17 17 18 18 18 19 19 19 19 18 18 19 19 19 19 19 19 20 19 19 18 17 19 18 18 19 19 19 19 19 19 19 19 19 19 19 18 17 18 18 18 18 17 18 17 16 17 16 17 18 16 16 16 15 16 15 14 14 15 14 13 13 14 15 15 14 14 14 16 16 16 16 16 15 14 14 14 13 13 12 12
16 16 17 17 17 17 17 17 18 18 19 19 19 19 19 19 19 18 19 19 19 20 19 19 19 19 20 18 17 19 18 18 19 19 19 19 19 19 19 19 19 19 18 17 17 17 18 18 17 16 18 17 16 16 15 17 17 15 15 15 15 15 14 13 15 15 14 13 14 14 16 15 14 13 16 18 17 16 16 17 15 14 15 14 14 13 12 12
17 17 17 17 17 17 17 18 18 19 19 19 19 19 19 19 19 19 19 19 19 19 19 19 19 20 20 18 18 19 19 19 19 19 19 19 20 19 19 19 19 19 18 17 17 17 17 17 15 15 18 17 17 16 15 16 15 14 14 16 16 14 14 14 15 15 13 15 14 14 15 15 13 14 17 19 17 15 15 16 15 14 14 14 14 13 13 12
17 17 17 17 17 18 18 18 18 19 19 19 19 19 19 19 19 19 19 19 19 19 20 19 19 20 19 18 18 19 19 19 19 19 19 19 20 19 19 20 19 19 19 17 17 17 17 17 16 18 18 16 17 17 16 14 14 14 14 17 18 16 16 15 14 14 13 15 15 13 16 17 15 16 18 18 17 16 15 15 15 14 14 14 14 14 13 12
17 17 17 17 18 18 18 18 19 19 19 19 19 19 19 19 19 19 19 20 20 19 20 20 19 20 20 19 19 20 19 19 19 19 19 19 20 20 19 19 19 19 19 18 18 17 17 17 18 18 16 16 17 16 15 13 14 15 13 15 17 16 18 16 14 14 15 15 15 15 17 18 17 17 17 17 17 16 15 14 14 14 14 14 14 13 13 13
17 17 17 18 18 18 18 19 19 19 19 19 19 20 20 19 20 19 20 20 20 20 20 20 19 20 19 19 20 20 20 20 20 19 19 19 20 20 20 20 20 19 19 19 18 18 18 18 18 16 14 15 15 14 15 14 14 15 14 14 14 14 18 16 13 14 16 15 15 16 15 16 18 18 17 16 16 15 14 14 14 13 13 13 13 13 13 13
17 18 18 18 18 18 19 19 19 19 19 19 19 20 20 20 20 20 20 20 20 20 20 20 20 20 20 20 20 20 20 20 20 19 19 18 19 19 20 20 20 19 19 19 19 19 18 18 17 16 16 14 13 15 17 16 15 14 15 16 14 14 16 15 13 13 15 14 14 16 15 15 17 17 17 16 14 14 13 14 13 13 14 13 13 13 13 13
18 18 18 18 18 19 19 19 19 20 19 19 20 20 20 20 20 20 20 20 20 20 20 20 20 20 20 20 20 20 20 19 20 20 19 18 18 18 19 20 20 20 20 19 19 19 18 18 15 14 15 14 13 14 16 17 15 13 14 16 14 14 14 14 14 12 12 14 14 15 14 15 16 17 17 15 14 13 13 13 13 14 13 13 12 12 12 13
18 18 18 18 19 19 19 19 19 20 20 20 20 20 20 20 21 21 21 21 20 20 20 20 19 19 20 20 20 20 19 19 20 19 18 18 18 19 19 19 18 18 18 19 19 18 17 16 14 13 14 13 12 14 17 17 16 14 13 14 14 13 12 14 15 12 11 13 13 13 13 14 15 15 15 14 14 13 13 13 13 13 12 12 12 12 13 13
18 18 18 19 19 19 19 19 19 20 20 20 20 20 20 20 21 21 21 21 21 21 21 20 19 19 20 20 19 18 18 19 19 18 18 19 19 19 19 18 16 15 17 18 18 18 17 15 15 16 15 13 12 13 17 16 15 15 13 13 13 12 12 13 14 13 12 12 12 12 13 14 14 13 14 14 13 13 13 12 12 12 12 13 13 14 15 14
18 18 19 19 19 19 19 19 20 20 21 21 21 21 21 21 21 21 20 20 20 20 20 19 18 19 19 19 18 18 18 19 19 18 18 18 19 19 17 16 15 16 19 19 19 17 16 16 16 16 16 14 13 12 14 15 14 14 12 12 12 12 12 12 13 12 11 12 13 13 14 14 13 13 15 15 13 13 13 12 12 13 13 14 14 15 15 16
19 19 19 19 19 19 19 20 20 21 21 21 21 21 21 21 20 20 19 18 17 16 18 18 17 18 19 19 18 18 19 19 19 17 17 18 18 19 17 16 17 17 17 18 18 14 13 17 16 15 15 14 13 11 11 12 11 11 11 11 11 11 12 13 13 11 10 12 13 13 13 12 13 13 14 14 13 14 14 14 14 14 14 14 14 15 15 16
19 19 19 19 19 19 19 20 21 21 21 21 21 20 19 18 19 19 18 17 14 13 17 17 16 17 18 18 17 17 17 19 19 17 18 18 17 19 17 16 19 19 15 13 15 14 14 17 16 14 13 12 11 10 10 11 10 11 11 12 12 12 12 13 12 10 10 11 13 12 11 12 13 14 14 13 14 15 14 14 14 14 14 14 15 15 15 15
19 19 19 19 19 19 20 20 21 21 21 22 21 17 15 15 16 17 17 18 17 14 16 17 16 17 17 17 17 16 16 18 19 18 17 17 17 18 17 16 18 18 14 13 16 17 17 17 15 13 11 11 10 9 10 11 11 11 11 12 13 13 13 13 12 11 10 11 12 12 11 12 13 13 14 14 15 16 14 13 13 13 14 14 14 14 13 14
19 19 19 19 19 19 20 20 20 21 21 21 20 16 15 16 16 15 16 19 19 16 17 18 17 18 18 18 17 17 18 17 18 18 16 16 16 15 16 16 16 16 15 16 18 18 17 16 14 11 10 12 13 11 11 12 12 11 12 13 14 13 12 14 13 12 10 9 10 11 11 12 13 15 16 14 13 14 13 14 15 13 13 12 11 11 10 11
19 19 19 19 19 20 20 20 20 20 20 20 18 17 17 17 16 16 17 18 19 18 17 17 17 17 17 17 17 17 18 17 16 17 16 15 15 15 15 15 15 16 15 14 16 17 17 15 11 11 12 13 14 13 12 13 13 12 12 14 14 13 11 12 12 10 10 9 9 11 14 15 15 17 18 15 13 13 13 13 14 11 9 9 8 9 8 8
19 20 20 20 20 20 20 20 19 18 19 19 18 17 17 17 16 16 17 18 19 19 18 17 18 18 17 17 17 16 16 17 17 16 16 14 14 15 15 13 15 17 15 13 15 17 16 12 11 13 14 13 15 14 12 12 13 13 14 14 13 12 11 10 9 9 12 13 11 11 16 17 15 16 17 14 12 11 10 9 9 8 7 7 7 7 7 7
20 20 20 20 20 20 20 20 19 18 19 18 17 18 17 17 16 16 18 19 19 19 19 19 19 19 19 17 14 14 16 18 17 16 16 15 13 14 16 14 14 15 14 12 14 15 15 12 11 13 14 14 15 14 12 11 12 14 15 13 12 11 10 10 9 10 14 15 11 11 14 15 15 15 14 12 10 8 7 7 6 7 7 6 6 6 6 6
20 20 20 20 20 20 20 20 19 19 19 19 18 18 17 17 16 16 18 20 19 18 18 19 19 19 19 16 12 15 18 18 17 16 15 15 14 13 16 15 14 14 11 12 16 15 14 15 14 13 14 15 15 14 13 11 12 16 14 11 11 11 10 10 9 10 12 12 11 11 12 13 15 15 11 8 8 6 6 6 5 6 6 5 6 5 5 5
20 20 20 20 20 20 20 19 19 19 19 19 18 18 18 17 16 17 20 20 18 19 18 18 19 19 17 14 14 17 17 16 17 17 14 15 15 14 16 14 14 15 11 13 19 15 13 15 15 14 14 15 15 14 12 11 13 15 13 10 10 9 9 9 9 10 9 11 14 13 11 13 15 13 9 7 6 4 5 5 5 5 5 5 5 5 5 5
20 20 20 20 20 20 20 20 19 18 18 18 18 18 17 16 16 18 21 19 18 19 18 18 19 18 14 15 16 16 15 15 16 15 13 14 15 14 15 13 12 14 12 13 17 15 13 13 12 12 14 14 15 13 11 11 13 13 11 11 11 9 8 8 9 11 10 12 16 14 12 14 14 9 6 5 4 3 4 4 4 4 4 5 5 4 5 4
20 20 20 20 20 20 20 19 19 19 18 18 18 17 17 17 18 20 20 18 18 18 17 17 17 15 13 16 18 15 15 15 13 13 13 13 13 13 12 11 12 14 14 13 15 14 12 10 10 12 13 13 13 12 11 10 11 12 11 12 14 11 9 9 9 10 12 14 15 14 12 13 12 7 3 4 4 3 4 4 4 4 4 4 4 4 4 4
20 20 20 20 20 20 19 19 19 19 18 18 18 17 18 18 18 20 19 17 17 17 16 16 14 13 12 13 15 14 14 15 13 13 14 12 12 12 13 12 12 15 15 15 16 15 13 12 12 12 11 11 12 13 12 10 9 11 12 12 14 13 12 12 12 11 13 14 14 13 11 13 12 7 3 3 4 4 4 3 3 4 4 4 4 4 4 4
19 19 20 20 20 20 19 19 19 19 18 19 17 17 20 20 17 18 17 16 18 16 15 14 13 13 12 11 13 13 13 14 14 12 12 12 11 9 11 11 11 14 15 14 14 15 16 16 14 12 10 10 12 14 14 13 12 12 12 12 13 13 12 12 13 12 13 13 14 12 11 12 10 5 3 4 4 4 4 4 4 3 4 4 4 4 4 4
20 20 20 20 20 19 19 19 19 19 19 18 18 18 20 21 18 15 14 16 17 13 12 12 11 11 11 13 14 12 12 14 14 13 12 12 12 10 10 9 10 13 14 13 13 14 16 16 14 14 13 11 12 14 14 13 13 11 11 12 13 12 12 11 11 11 12 12 13 12 11 11 8 3 3 4 4 4 4 4 4 4 4 4 4 4 4 3
20 20 20 20 19 19 18 18 18 18 18 18 20 21 20 19 16 13 14 15 13 11 11 10 11 12 12 14 14 12 14 15 13 13 13 13 14 13 12 10 10 11 12 12 12 12 15 16 16 16 14 12 13 13 13 12 12 11 10 11 12 13 12 11 11 11 11 11 12 12 11 12 10 5 3 4 4 4 4 4 4 4 4 4 4 4 3 3
20 20 20 19 19 18 17 17 17 17 18 18 19 19 18 17 14 14 15 13 11 11 11 9 11 15 16 14 12 11 14 15 13 13 14 13 13 12 12 11 10 10 11 13 12 11 13 15 16 14 12 12 13 12 11 12 13 10 9 11 13 13 12 11 11 11 10 10 10 11 12 12 8 4 3 4 4 3 4 4 4 4 4 4 4 3 3 3
20 20 19 18 18 18 17 16 16 17 18 19 19 17 15 14 13 13 12 11 10 10 11 12 13 15 17 15 14 13 13 14 14 14 15 13 11 11 11 10 9 9 11 11 11 11 12 14 15 13 12 13 12 11 10 12 14 12 11 13 12 10 11 11 10 10 9 9 9 10 12 10 6 3 3 3 3 3 3 3 3 3 3 3 3 3 3 3
20 19 19 18 17 17 17 16 16 17 18 19 18 15 12 11 11 10 9 9 8 8 11 16 15 14 15 15 15 14 13 14 14 14 15 14 12 12 11 10 9 9 9 10 11 11 10 12 13 12 14 14 10 9 10 9 11 13 13 13 11 9 10 10 9 9 9 9 10 11 11 10 9 6 3 2 2 2 2 3 3 3 3 3 3 2 2 2
20 19 19 17 17 17 17 18 17 17 17 17 15 12 11 10 9 8 8 8 8 9 13 15 14 13 13 14 15 13 12 15 15 14 14 14 14 13 11 11 9 8 8 8 10 10 9 11 13 10 12 13 9 10 13 10 8 10 12 11 11 11 11 10 9 9 9 8 9 10 11 10 7 4 2 1 2 2 2 3 2 2 2 2 2 2 2 2
20 20 19 18 18 18 17 19 17 16 17 16 13 12 11 10 9 7 7 7 8 11 13 13 12 13 13 12 13 12 11 13 13 13 14 14 14 13 11 10 10 8 7 7 9 10 9 11 13 10 10 12 12 13 14 13 10 9 10 10 11 11 11 10 9 9 9 8 8 8 10 8 3 1 2 1 1 2 2 2 2 2 2 2 2 2 2 2
18 20 20 18 19 19 18 19 16 15 15 13 11 11 10 10 9 7 5 6 9 11 12 12 11 13 13 12 11 11 11 11 11 12 14 13 14 14 11 9 10 9 7 6 8 9 9 10 12 12 11 12 13 13 13 13 12 11 11 12 11 11 11 10 9 9 8 8 8 7 8 7 2 1 2 1 1 2 1 1 2 2 2 2 2 2 1 2
16 20 21 18 18 19 19 19 13 11 13 11 10 11 10 10 10 9 5 4 8 10 10 11 11 12 12 12 12 10 10 11 11 12 13 12 13 14 10 7 8 9 8 9 9 8 9 10 9 10 11 11 13 14 13 12 12 11 12 12 11 10 9 8 8 9 8 8 7 6 7 6 2 2 2 1 1 2 1 2 1 1 2 2 2 2 2 2
18 20 19 18 19 19 19 16 10 8 11 11 10 10 9 9 11 10 8 6 8 10 10 11 11 10 11 11 11 10 10 12 12 13 14 12 13 14 10 6 6 6 7 10 9 7 8 8 8 10 11 11 13 13 11 9 10 11 10 9 8 6 6 6 6 7 7 7 7 6 6 5 1 1 2 2 2 2 2 2 1 1 2 2 2 2 2 2
19 20 18 18 19 19 18 16 11 10 11 9 9 9 8 10 11 11 10 9 10 11 12 11 11 11 11 10 10 11 11 12 13 14 14 12 12 11 7 5 6 6 8 9 9 7 8 8 9 10 11 11 13 13 11 9 9 11 8 4 3 3 3 4 4 4 5 5 5 4 5 4 1 1 2 2 2 2 2 2 2 2 2 2 2 2 2 2
17 17 17 17 20 21 20 17 14 12 11 10 11 10 9 9 11 11 11 10 10 11 12 12 11 11 11 9 9 11 12 13 13 12 12 12 11 8 5 5 6 7 8 8 8 8 9 10 10 10 10 10 11 11 11 10 11 11 6 2 1 2 2 3 3 3 4 4 3 1 3 4 4 3 3 2 2 1 2 2 2 2 2 2 2 2 2 1
17 17 17 17 16 16 15 13 14 14 13 13 13 12 11 11 10 9 10 10 8 9 11 12 10 10 9 8 9 10 10 12 13 12 10 11 11 7 5 5 6 6 6 4 4 6 8 10 9 9 10 9 9 9 10 10 11 9 5 1 1 1 1 2 2 2 2 2 2 2 2 4 4 4 3 2 1 1 2 2 2 2 2 2 2 1 1 1
19 19 19 18 14 12 10 8 11 14 14 14 14 12 12 13 11 8 9 10 9 8 10 10 9 9 10 10 11 12 11 11 11 11 11 12 13 10 5 4 5 4 3 2 2 5 7 7 8 10 10 10 9 10 10 10 9 6 3 1 1 1 1 1 1 1 1 1 1 3 3 2 3 3 2 1 1 1 2 2 2 2 2 1 1 1 1 1
19 17 16 18 17 15 13 10 10 13 13 13 14 12 11 12 12 11 10 10 10 9 9 9 8 10 11 10 12 12 12 11 9 10 11 11 11 10 5 4 5 3 3 3 3 5 7 8 8 8 9 10 10 10 10 9 6 3 2 1 2 1 1 1 0 0 1 0 1 3 2 1 2 2 1 1 1 1 1 1 1 1 1 1 1 1 1 1
17 15 12 13 16 16 15 13 10 11 11 11 11 10 11 12 12 12 12 11 10 9 11 12 10 10 9 8 10 12 11 11 11 12 11 9 9 9 8 7 5 3 4 5 4 5 8 8 8 7 7 8 9 8 9 7 3 2 2 2 1 1 0 0 -0 1 1 0 0 2 2 1 2 2 1 1 1 1 1 1 1 1 1 1 1 1 0 0
14 14 11 11 13 12 11 10 10 11 12 11 11 11 11 12 12 10 9 11 13 11 10 14 13 9 7 6 8 11 11 10 11 11 10 9 8 8 10 9 6 3 4 6 5 4 7 9 8 7 6 7 7 8 8 6 3 1 1 1 1 1 1 0 0 1 1 0 1 1 1 1 2 2 1 1 1 1 0 1 0 0 0 0 0 0 0 0
15 16 13 12 12 10 8 9 11 13 12 10 12 11 9 11 12 10 8 10 14 12 10 12 12 8 7 6 7 10 11 10 10 9 8 8 7 7 9 9 7 5 5 6 5 5 7 8 7 6 6 7 8 8 8 6 2 0 0 0 0 1 1 0 0 1 0 0 1 1 1 1 2 2 1 1 1 0 0 0 0 0 0 0 0 0 0 0
14 14 14 16 13 9 10 10 9 13 14 11 11 11 10 12 11 10 10 9 10 11 10 10 10 7 6 6 7 10 10 8 8 8 7 7 7 7 8 6 4 4 5 4 4 5 7 7 7 6 5 7 8 8 7 5 2 -0 -0 -0 -0 -0 -0 -0 0 0 0 -0 -0 0 0 1 2 1 1 0 0 -0 -0 -0 -0 0 0 0 0 0 0 0
14 13 12 15 14 8 9 10 9 13 13 10 9 9 10 11 8 8 12 11 8 9 8 7 8 8 9 10 11 11 8 6 6 6 5 5 4 4 4 3 2 3 3 3 2 2 3 5 6 5 4 6 7 7 6 5 3 2 1 -1 -1 -0 -1 -0 0 0 0 0 -0 -0 0 1 1 0 -0 -0 -0 -0 -0 -0 -0 -0 -0 0 0 0 0 0
Height
799 799 799 799 799 799 799 798 799 799 799 799 799 799 799 799 798 797 797 796 795 794 793 793 792 791 790 790 791 791 791 791 791 790 790 793 794 792 791 790 789 788 788 787 785 784 783 783 782 782 780 781 785 786 785 787 788 789 795 802 802 805 802 795 791 791 791 786 784 786 789 788 782 780 779 776 776 775 774 771 769 767 762 760 758 758 759 759
799 799 799 799 799 799 798 799 799 799 800 799 799 799 798 798 797 797 796 796 795 794 794 793 792 791 790 790 791 791 792 791 791 791 793 794 793 792 791 790 789 789 788 786 785 785 785 785 784 783 783 784 787 787 787 789 789 792 801 804 800 799 795 791 788 787 789 786 785 786 788 789 783 780 780 777 774 776 775 769 769 768 762 759 756 757 758 759
799 799 800 800 799 799 799 800 800 800 800 799 799 799 798 798 797 797 796 796 795 795 795 794 793 791 791 791 791 792 792 791 792 794 794 793 793 792 791 790 789 788 788 787 786 786 786 786 785 785 785 786 790 789 788 789 791 793 800 800 795 794 792 791 789 787 787 786 786 786 788 789 783 782 781 778 775 775 773 766 766 766 760 756 753 755 757 758
799 799 800 800 799 800 800 800 800 800 800 800 800 799 799 798 798 797 796 796 795 796 795 794 794 792 793 792 792 793 791 793 796 796 794 793 793 791 790 790 789 788 788 787 786 786 786 786 785 786 786 788 791 791 790 791 792 795 797 794 791 795 793 787 787 787 788 790 788 786 789 787 782 784 781 779 779 772 765 760 760 759 755 753 752 753 755 756
799 800 800 800 800 800 801 801 801 801 801 800 800 799 799 799 798 798 797 796 796 796 795 795 794 794 794 793 794 792 792 798 799 796 794 794 793 792 790 789 789 788 788 787 787 786 785 786 785 786 788 789 791 791 792 794 794 794 793 791 792 797 791 785 788 789 789 791 789 787 787 783 780 782 779 780 780 768 754 751 754 754 751 751 751 752 754 755
800 800 800 800 800 801 801 801 801 801 801 801 800 800 800 799 799 798 797 797 797 797 796 796 795 795 795 794 795 792 794 801 799 795 795 794 793 792 790 789 789 788 788 787 787 786 786 786 785 789 791 791 794 794 794 796 796 794 792 793 795 797 792 786 788 788 789 790 787 785 784 783 781 778 777 777 772 759 747 748 752 751 750 751 751 752 752 752
799 800 800 801 801 801 802 802 802 802 801 801 801 800 800 799 798 798 797 797 797 797 796 796 795 795 795 794 794 793 796 799 797 796 795 794 793 792 790 790 789 788 788 787 786 786 787 787 787 792 793 792 796 796 796 797 797 796 794 793 793 795 792 787 788 788 789 787 783 785 784 782 779 776 777 771 760 753 748 749 751 750 749 750 751 750 750 749
799 800 801 801 802 802 802 802 802 802 802 801 801 800 800 799 798 797 797 797 797 797 797 797 796 795 794 794 794 796 799 798 797 796 795 794 793 792 791 790 789 788 788 787 787 787 788 789 790 794 794 795 798 797 798 796 795 796 794 792 792 792 789 787 789 787 788 786 783 786 783 778 777 778 776 765 753 750 751 750 749 749 748 749 749 748 748 747
800 801 802 802 802 803 803 803 802 802 802 801 801 800 799 799 798 797 796 797 798 797 797 797 797 795 794 794 794 798 801 798 797 796 795 794 793 793 792 791 789 788 788 788 788 787 788 791 792 793 793 796 798 797 798 795 794 796 794 794 793 789 788 790 788 784 785 785 784 783 777 774 776 778 770 756 750 750 750 749 747 748 747 746 746 745 745 745
801 802 802 803 803 803 803 803 802 802 802 801 801 800 799 798 798 798 797 798 798 798 798 798 798 796 795 794 796 801 801 798 797 796 796 795 794 793 792 791 790 789 788 789 789 788 789 789 791 791 791 795 797 797 799 796 795 796 795 794 792 790 791 791 786 783 785 783 783 780 773 771 775 779 766 749 747 751 749 746 746 747 746 744 743 742 742 742
802 802 803 803 803 803 803 802 802 802 801 801 800 799 798 798 798 798 798 798 799 799 799 798 798 797 796 795 798 803 800 797 798 796 796 795 793 793 792 791 790 789 789 789 789 789 789 788 790 790 791 794 795 797 798 796 796 797 796 790 788 791 789 789 786 784 786 781 782 782 772 768 776 776 761 748 748 750 749 746 744 745 744 742 740 738 737 736
803 803 803 803 803 803 802 802 802 802 802 801 800 799 799 799 799 799 799 799 799 799 799 798 798 797 797 796 799 801 798 798 798 796 796 794 793 792 792 791 790 790 790 790 790 789 789 788 788 789 793 795 794 796 796 797 798 796 796 789 784 787 785 786 787 787 788 782 781 783 771 762 769 766 752 750 749 748 749 746 744 743 741 739 736 734 733 731
803 803 803 803 803 803 803 803 802 802 802 801 801 800 799 799 799 799 799 799 799 799 799 798 798 797 797 799 800 799 798 798 797 796 796 793 792 792 791 791 790 790 789 789 790 789 789 788 788 790 794 794 795 796 795 798 797 793 800 797 791 791 784 784 790 787 784 782 780 782 777 763 758 755 750 753 752 748 748 745 743 741 738 736 733 732 729 727
803 803 804 803 804 804 803 803 803 803 802 801 801 800 800 800 800 800 799 800 799 799 799 798 798 797 798 801 800 798 798 798 797 796 795 793 791 790 791 791 790 790 789 790 789 789 789 789 789 791 795 797 798 797 797 800 798 797 801 801 806 803 786 783 792 788 782 783 780 780 785 772 756 750 749 753 753 753 751 745 743 740 737 734 731 731 727 725
803 804 804 804 804 804 804 804 803 803 802 802 801 801 801 800 800 800 800 800 799 800 799 798 798 797 800 801 798 799 798 797 797 796 794 793 791 790 790 789 789 789 789 789 789 790 790 789 791 794 797 798 798 798 798 799 802 806 801 798 810 809 793 789 792 792 786 785 783 782 786 776 762 753 747 751 754 755 754 747 744 740 737 735 732 732 728 724
804 804 805 805 805 804 804 804 804 803 803 802 802 802 801 801 801 800 800 800 799 800 799 798 798 798 802 803 799 798 798 797 797 796 795 793 791 791 789 788 789 789 789 789 789 790 790 791 797 801 801 800 804 806 801 800 805 813 812 804 806 806 803 795 788 793 793 787 784 784 786 778 765 754 747 749 752 754 753 748 745 742 739 738 736 734 730 726
804 805 805 805 805 805 804 804 804 804 803 803 802 802 802 801 801 801 801 800 800 800 799 800 798 798 802 802 801 800 800 799 797 797 795 793 792 791 790 789 789 789 790 789 789 790 791 795 801 804 806 810 816 811 801 806 809 812 817 812 808 811 811 799 786 792 794 788 787 786 787 779 765 759 755 752 753 753 751 748 746 745 743 741 739 734 731 729
805 805 805 805 805 805 805 804 804 804 804 803 803 803 803 802 802 801 801 800 800 799 799 800 798 804 809 804 805 806 802 801 799 798 795 793 792 791 791 791 791 791 791 791 791 792 793 799 804 804 809 815 818 814 806 811 813 811 816 815 813 814 813 804 792 791 792 791 790 788 784 775 766 763 759 752 754 753 751 751 750 747 745 742 739 735 732 730
805 805 805 805 805 805 805 805 804 804 804 803 803 803 802 803 802 801 802 801 803 805 809 810 807 815 818 810 809 807 802 802 801 799 796 794 792 792 792 792 793 792 793 795 795 799 801 802 806 808 811 814 819 823 817 814 816 816 820 821 818 814 809 804 796 795 799 794 787 784 779 773 769 764 756 751 754 754 751 752 750 746 745 742 740 737 734 732
805 805 805 805 806 806 806 805 805 804 804 803 803 803 803 806 807 808 808 807 811 814 816 816 814 817 816 811 809 805 802 801 801 800 796 794 793 792 793 793 794 794 800 804 801 808 811 807 813 817 817 818 821 827 825 823 825 823 824 823 821 819 808 799 797 800 803 796 784 784 784 778 771 764 758 756 755 754 751 750 749 747 745 743 742 739 736 734
805 805 806 806 807 807 807 806 806 805 804 804 803 804 809 812 812 814 814 814 817 817 815 816 816 816 814 812 810 807 805 801 798 798 798 797 794 794 797 798 797 799 810 816 811 812 812 810 817 820 821 823 826 831 829 826 827 825 824 820 816 817 807 795 799 803 804 799 787 787 789 777 768 763 759 760 758 753 754 754 753 752 750 747 744 741 739 736
805 806 806 807 808 808 808 807 807 806 806 805 804 808 813 813 813 814 814 816 817 817 816 816 816 815 814 812 811 809 808 804 799 798 799 799 796 799 805 807 806 808 815 817 811 810 812 814 818 822 827 828 829 833 830 825 825 825 825 820 811 811 806 794 796 800 803 802 789 788 791 776 767 765 760 762 759 756 759 760 759 758 755 752 749 749 747 743
806 807 807 808 809 809 809 809 809 809 808 806 807 810 812 813 813 813 813 816 818 818 817 816 816 816 814 812 812 810 809 812 812 807 804 803 803 808 810 811 814 815 816 814 809 812 816 817 821 828 829 824 822 826 826 822 821 823 821 815 807 809 811 798 791 796 803 806 798 792 788 775 768 761 755 762 764 761 762 760 760 764 765 764 764 764 763 759
807 808 808 809 810 810 810 810 810 810 809 809 810 811 812 813 813 813 814 818 820 818 817 817 817 817 817 816 815 813 814 819 820 815 811 810 811 812 813 817 818 816 820 822 817 815 818 822 827 830 826 822 819 819 823 819 816 820 817 812 807 808 814 808 803 805 803 804 805 794 775 764 764 759 752 761 765 765 769 768 769 776 779 778 777 775 775 773
808 808 809 810 810 811 811 811 811 811 811 811 811 812 813 813 813 813 814 820 824 820 817 818 818 818 819 818 816 817 819 819 820 819 816 815 815 815 817 821 820 817 823 828 823 816 818 827 829 824 822 823 818 816 823 823 819 816 809 808 808 808 814 816 818 813 794 787 797 795 776 763 764 764 762 767 772 778 783 786 788 788 787 785 783 782 779 776
808 809 810 810 811 812 812 812 812 812 812 812 813 813 813 813 814 814 815 824 832 829 823 820 821 822 820 821 820 819 821 820 819 821 818 817 818 817 818 823 824 822 826 829 826 821 822 827 829 824 821 820 818 819 824 827 823 811 805 810 812 814 815 814 817 811 791 786 796 799 788 774 766 767 776 782 788 796 797 797 800 797 794 792 790 787 783 780
808 809 811 811 812 812 812 813 812 813 813 814 814 813 813 813 813 813 816 832 842 836 831 827 825 826 823 826 825 820 827 827 820 820 821 819 820 818 818 825 826 826 834 832 821 822 825 821 823 824 821 817 817 820 821 827 823 806 804 813 812 812 812 813 817 811 803 799 797 798 796 786 773 771 787 796 799 806 807 806 807 803 801 799 796 792 789 787
809 810 811 812 813 813 813 813 813 814 814 815 814 813 813 813 813 813 819 843 852 838 836 835 828 828 828 829 827 826 833 833 826 824 824 822 821 820 822 829 830 827 836 831 817 824 828 821 823 825 822 819 817 819 823 826 819 806 808 816 815 815 816 818 815 809 815 806 784 786 797 787 775 781 798 804 807 815 817 816 814 809 807 803 800 798 794 792
810 812 813 814 814 814 814 813 813 815 815 815 814 813 814 811 813 815 823 848 853 839 839 837 828 833 836 832 830 834 836 835 836 833 828 826 823 823 827 832 833 829 833 831 823 827 828 826 831 829 825 822 817 819 824 823 817 811 814 814 811 817 821 820 814 807 811 801 778 781 792 781 781 806 820 814 818 826 824 823 820 815 812 807 804 802 797 794
812 813 814 815 815 814 814 814 815 815 815 815 814 813 813 812 816 824 837 852 852 845 844 840 839 846 847 838 833 839 840 839 844 839 834 835 830 827 831 833 833 829 831 830 824 826 831 833 835 830 827 826 822 822 824 824 821 815 814 808 799 805 815 816 816 810 799 788 780 783 790 784 788 823 842 831 831 835 830 826 821 815 812 808 806 804 801 797
813 815 815 815 816 815 815 815 815 815 814 814 814 813 813 818 827 838 852 858 852 852 848 846 852 854 855 856 848 846 846 843 845 843 840 842 840 836 833 836 838 830 828 830 823 823 827 827 828 828 830 831 828 822 820 825 827 820 816 811 799 797 803 802 803 804 795 786 782 785 794 788 786 818 844 841 837 836 832 829 822 816 812 809 807 805 803 800
815 816 816 816 816 815 815 815 814 814 814 813 813 814 814 825 842 854 863 857 852 858 859 858 861 858 863 867 860 856 854 847 846 849 851 850 851 854 851 854 853 838 834 840 836 828 821 820 825 829 831 832 828 820 816 817 819 819 817 815 811 806 806 803 799 801 797 789 784 788 795 790 797 829 843 840 838 834 832 830 823 819 814 810 807 805 804 801
816 816 816 817 816 815 814 814 813 813 813 813 813 816 820 833 855 871 871 860 858 867 870 869 868 867 868 861 857 861 858 852 849 850 854 852 853 858 861 865 862 849 846 850 849 840 826 820 823 824 826 829 827 821 819 816 816 822 823 818 818 818 821 821 814 810 803 791 782 788 795 790 807 840 843 834 835 832 830 828 823 820 815 810 808 805 803 799
817 817 817 817 815 815 813 812 812 813 812 813 813 818 828 846 867 876 871 867 872 875 875 878 873 868 866 860 862 865 856 852 855 852 850 849 850 853 857 861 862 859 856 853 856 852 839 829 822 821 824 827 825 824 826 824 821 827 830 825 821 820 826 829 819 811 807 798 788 789 790 778 789 825 837 832 832 830 829 827 823 820 816 813 809 803 800 796
817 818 817 816 815 814 812 811 811 812 812 813 820 831 844 861 874 875 871 875 880 877 877 882 875 860 858 862 867 869 860 853 855 854 851 853 857 858 859 862 864 864 858 853 858 860 853 840 825 824 830 828 825 827 830 825 819 829 834 826 819 817 822 824 817 815 819 816 806 794 783 780 799 826 833 828 828 827 825 823 819 817 814 811 806 802 799 796
818 818 817 816 816 814 813 812 810 812 813 812 826 850 867 875 878 877 879 882 884 884 877 873 871 862 859 862 863 865 864 858 855 853 850 857 864 862 862 866 868 868 862 858 860 859 856 842 826 827 828 824 826 829 831 826 818 824 826 816 818 825 824 821 819 820 826 824 811 794 783 789 809 824 825 824 823 821 819 817 816 814 811 807 803 800 799 796
818 818 818 818 817 816 815 814 812 813 813 815 835 865 882 885 885 886 889 887 890 892 878 865 870 873 871 868 862 863 864 858 857 856 852 856 860 859 862 866 868 870 867 866 862 860 863 849 834 834 825 820 831 832 828 831 825 819 817 815 822 827 822 825 829 825 824 821 805 791 787 786 791 805 821 829 826 823 822 819 816 814 810 807 803 802 801 798
818 818 818 819 820 818 816 815 815 813 813 828 856 878 886 887 890 892 892 892 892 888 876 871 875 877 879 875 867 870 870 859 859 862 858 856 855 857 862 863 866 872 872 870 862 863 869 852 834 839 834 824 831 829 820 828 832 826 822 821 823 823 819 827 833 826 825 823 808 794 786 788 805 822 832 836 832 829 827 821 819 816 812 810 807 805 804 801
818 819 821 824 822 820 819 816 816 814 819 845 872 881 885 888 892 895 894 894 892 883 878 882 883 878 880 880 875 877 876 869 868 867 861 859 855 856 862 864 865 870 873 872 865 864 869 856 836 836 839 829 824 823 816 819 827 829 828 824 824 825 821 822 824 822 825 822 814 806 789 795 830 844 838 840 838 832 830 826 823 820 817 816 812 809 808 804
819 821 825 826 821 822 821 814 817 825 838 865 881 882 886 890 890 895 897 894 888 882 881 885 885 879 879 882 882 883 881 877 876 870 864 865 859 854 862 869 867 867 873 873 869 867 868 863 846 833 834 832 824 822 820 818 822 825 823 819 821 822 820 823 824 822 824 819 818 821 802 801 834 844 836 841 838 833 834 830 826 823 820 817 813 810 808 804
820 823 828 826 822 823 819 819 838 855 863 877 883 883 888 889 887 891 897 896 889 884 884 885 884 883 882 881 882 885 883 878 877 872 866 867 862 855 864 874 870 869 871 866 867 870 866 866 861 845 837 833 823 819 819 821 825 826 823 820 824 829 830 835 831 821 825 823 823 828 811 807 834 839 834 839 836 834 835 829 827 824 819 816 812 809 807 803
824 830 833 828 824 823 820 837 867 876 874 880 884 885 888 888 886 887 891 893 889 884 885 885 885 887 887 883 882 886 884 876 872 869 865 867 862 857 867 877 876 875 871 864 868 873 869 871 870 854 840 832 824 820 823 830 831 829 833 838 843 851 854 855 848 838 838 831 827 831 818 818 840 839 832 836 834 833 831 826 826 822 817 816 811 808 805 802
831 835 834 829 827 824 826 849 875 879 880 889 890 890 891 888 885 885 887 888 885 882 882 883 885 886 885 886 885 883 881 875 869 865 864 867 864 863 872 879 877 875 871 866 868 872 870 871 866 850 836 826 820 817 822 832 831 828 844 861 867 872 873 868 861 856 852 842 844 850 832 825 840 839 831 832 829 827 824 821 821 818 814 812 808 805 803 798
837 838 835 831 826 823 832 854 871 877 884 887 885 887 890 889 888 886 886 887 887 886 882 882 886 884 885 891 888 882 879 873 868 869 870 868 866 871 879 880 876 873 870 868 870 870 865 863 863 858 849 837 827 823 822 825 824 828 854 876 879 878 876 869 864 864 859 852 861 868 847 828 830 830 828 829 827 825 821 817 816 814 810 808 804 802 799 795
836 838 840 837 830 832 849 866 869 872 880 880 880 887 888 887 891 891 889 889 892 893 886 884 889 888 889 893 889 885 885 877 871 873 876 871 865 871 880 880 876 875 876 879 880 875 867 864 864 863 863 862 857 848 838 831 827 836 862 881 881 879 879 874 872 874 870 865 866 866 850 832 825 824 826 828 828 825 819 815 814 811 807 804 802 799 796 793
836 841 847 847 844 849 866 878 873 870 876 876 878 888 888 885 890 895 893 890 891 894 890 889 892 890 890 889 883 881 882 882 881 878 875 868 860 867 879 881 879 880 881 883 884 879 874 873 869 860 858 860 857 850 842 838 842 855 874 882 880 882 882 879 881 882 879 876 867 856 847 838 829 827 830 830 828 824 818 815 813 808 805 802 798 796 792 788
841 853 860 856 855 860 868 877 878 875 877 878 881 890 892 888 889 890 889 890 892 893 892 893 894 889 887 888 884 880 878 882 885 879 874 872 867 868 877 880 880 881 881 882 883 879 874 869 866 864 859 852 849 848 843 845 860 875 882 882 880 883 883 883 887 885 880 878 866 850 846 844 834 829 832 832 828 823 819 818 814 809 805 802 797 793 788 783
847 861 870 863 862 870 872 876 883 882 881 884 890 895 894 891 891 889 888 890 891 892 889 887 891 894 897 899 893 885 882 881 878 873 873 878 877 872 870 874 880 883 881 879 881 881 874 865 863 867 863 857 856 854 848 855 873 883 883 882 882 884 885 887 888 882 877 877 867 851 848 846 835 830 833 832 827 823 821 818 814 809 805 801 796 791 785 780
854 861 871 869 870 882 886 887 887 883 883 887 891 896 897 893 893 896 899 893 886 891 892 883 885 896 903 906 899 888 886 885 879 878 879 881 882 878 869 868 876 884 882 878 880 884 877 865 864 868 865 859 858 855 851 860 876 884 886 886 885 883 883 885 883 878 874 871 861 851 848 843 833 831 833 829 825 824 821 816 811 807 802 798 794 788 782 777
852 856 866 869 876 889 893 892 888 881 885 891 891 897 903 897 893 899 905 898 886 889 896 889 890 899 903 907 903 890 886 888 885 885 888 887 886 884 877 873 877 884 883 880 883 884 874 865 868 872 866 855 850 851 852 861 877 888 889 888 886 883 882 882 880 876 874 868 859 853 848 837 829 830 831 827 824 823 818 812 807 802 797 793 790 784 779 775
849 853 858 861 877 893 891 893 894 884 885 895 895 899 902 896 898 901 899 901 897 894 897 897 897 901 903 905 900 888 886 890 889 887 889 889 888 885 882 885 890 891 888 889 891 886 878 873 871 875 873 857 847 849 853 864 881 890 892 892 890 887 885 882 879 876 873 868 860 853 846 835 829 831 830 827 825 822 816 810 805 799 793 788 785 780 776 773
851 855 856 857 876 897 896 895 896 886 890 903 903 903 901 898 906 906 894 896 903 901 901 903 902 900 896 892 888 884 887 890 889 888 889 889 891 891 890 893 898 897 895 899 901 898 894 885 878 884 880 860 851 854 855 861 869 874 885 894 892 889 887 881 877 875 871 867 861 852 843 836 832 832 830 825 822 818 812 807 804 799 791 784 781 779 774 771
Wind_Speed
2 2 1 1 1 1 1 1 2 3 4 6 7 8 10 10 11 11 11 12 12 11 9 10 13 11 8 5 4 3 5 6 10 19 16 11 17 18 15 14 14 15 15 14 14 12 10 11 13 15 10 3 4 2 3 3 2 3 3 1 3 3 3 5 6 6 4 4 6 4 2 6 7 4 2 2 3 6 5 6 6 6 10 12 15 12 7 2
0 0 1 1 1 1 1 1 2 4 6 7 9 10 10 10 10 11 11 11 10 8 8 11 14 11 5 2 2 2 4 5 10 15 14 15 19 18 14 13 14 14 14 14 14 11 7 7 9 9 7 2 3 3 2 2 1 2 3 1 4 5 5 6 6 5 3 4 6 5 3 6 7 4 1 3 6 4 6 10 5 8 14 14 19 17 8 7
1 2 2 1 1 1 1 2 3 6 7 8 9 10 10 10 10 12 12 10 7 6 9 12 15 13 8 5 4 4 4 5 7 9 13 17 18 16 14 13 12 12 12 12 11 8 5 5 5 4 5 2 2 2 2 2 1 1 3 2 6 6 5 5 6 6 5 4 5 7 3 3 6 3 0 3 8 7 8 11 6 10 15 15 16 13 10 11
2 3 2 1 1 1 1 3 5 7 8 9 9 8 8 9 10 12 12 9 5 6 10 13 15 14 11 8 8 6 4 6 4 7 13 15 16 16 13 11 11 10 11 10 8 6 4 3 1 3 4 2 4 2 1 2 1 1 3 4 6 3 3 6 6 6 5 2 4 6 4 5 7 3 2 2 6 9 11 12 11 13 15 14 13 9 9 11
4 3 2 2 1 1 3 5 6 7 8 8 7 7 7 8 9 11 12 7 4 7 9 12 13 12 11 10 9 6 3 5 4 8 13 13 15 16 12 9 9 10 10 9 7 4 4 4 5 5 4 1 4 4 1 2 2 0 3 5 5 3 3 7 4 5 4 1 3 5 5 7 5 2 5 5 6 10 11 9 11 14 14 12 10 7 7 8
4 3 3 2 1 2 4 5 6 7 7 6 5 6 6 8 9 10 10 5 4 6 8 10 11 9 8 7 7 5 4 2 6 9 12 13 15 16 13 9 8 10 9 7 7 5 4 6 6 4 3 2 3 1 3 4 3 2 4 3 3 4 3 5 2 4 4 2 4 4 4 3 4 6 4 8 13 15 16 10 6 10 11 10 8 5 7 9
4 3 2 1 2 3 4 5 6 6 6 5 5 5 6 8 10 10 7 2 2 5 7 10 11 10 8 4 3 5 6 1 7 10 11 14 15 15 13 10 10 10 7 6 8 5 4 7 5 3 3 4 1 1 3 5 3 1 4 5 4 3 5 6 4 4 4 6 8 2 4 5 6 7 1 7 16 18 18 13 8 10 10 8 6 6 9 11
4 3 2 1 2 4 4 5 6 6 5 5 5 6 8 9 10 9 4 3 3 5 7 9 10 11 7 2 2 4 4 3 8 11 11 14 14 13 14 13 13 9 4 7 6 1 4 5 2 3 3 2 1 0 3 5 4 2 3 5 3 3 6 7 7 7 6 7 6 2 6 10 9 4 3 12 19 16 13 11 11 11 10 8 8 10 10 10
4 3 1 1 2 4 4 6 7 6 5 5 6 7 9 9 9 6 6 5 3 5 8 8 9 10 6 1 5 4 3 5 9 11 11 13 13 11 12 13 15 11 5 6 6 3 3 1 1 2 2 1 2 1 3 4 3 3 4 4 5 7 7 6 6 7 7 5 2 3 9 10 7 2 6 16 18 12 8 8 8 6 8 9 9 10 9 10
4 2 1 1 3 4 5 6 6 5 5 6 8 9 9 7 6 6 7 5 4 5 7 7 7 9 7 3 6 5 5 7 9 10 10 11 12 9 10 13 14 12 7 6 8 6 3 3 3 3 4 2 0 1 1 0 1 4 4 5 6 8 7 4 5 6 5 4 2 4 11 10 4 1 5 12 9 4 8 10 9 5 8 10 9 9 9 10
3 2 1 2 3 4 5 6 5 5 5 7 9 9 7 5 6 7 6 5 5 5 6 7 7 8 10 8 7 4 6 8 10 12 11 11 12 9 9 13 12 11 8 6 7 6 3 3 4 3 2 0 1 2 2 2 1 2 3 6 7 7 5 3 6 7 5 3 2 4 11 10 1 2 8 12 7 4 8 12 12 8 8 10 10 10 8 8
3 2 2 3 3 4 5 5 5 5 6 8 8 7 7 5 5 5 5 4 4 4 5 8 7 3 7 9 5 3 7 10 10 12 13 13 13 8 6 11 10 8 6 5 4 4 5 1 4 5 0 1 1 2 1 1 1 1 4 5 9 9 5 4 6 6 4 3 2 1 8 9 0 7 12 11 10 9 10 11 12 11 9 9 9 9 8 8
3 2 2 3 4 5 5 5 5 5 6 8 7 7 8 6 4 3 2 1 2 4 5 7 7 2 3 4 1 5 8 9 9 10 16 18 14 6 4 9 9 6 5 5 3 4 7 4 6 6 2 2 1 1 2 3 3 2 5 4 5 9 5 4 5 6 4 2 4 3 4 9 8 10 9 5 8 11 13 13 12 10 9 8 8 7 8 8
3 3 3 3 4 5 5 5 4 5 7 7 6 6 7 7 6 4 2 1 2 5 6 6 6 2 3 1 2 6 10 7 9 12 17 22 16 5 3 8 7 4 5 5 4 7 8 4 8 6 2 3 1 2 4 6 5 3 5 3 4 5 5 7 6 5 6 2 4 5 2 8 13 17 10 2 3 9 13 15 12 10 9 8 8 7 9 8
3 3 2 3 5 5 4 4 4 5 7 6 5 5 5 5 5 4 3 2 3 5 5 4 5 2 3 1 2 8 11 9 13 16 17 22 18 7 7 10 4 3 6 5 3 6 7 5 7 4 2 3 4 5 5 5 4 4 4 4 3 2 5 10 6 2 3 4 5 5 3 7 11 17 14 5 6 7 9 12 11 11 10 9 9 7 8 9
3 2 2 4 4 3 3 4 4 5 7 6 8 8 8 6 3 4 4 2 4 7 6 4 5 4 4 2 6 9 9 9 16 18 18 20 13 6 12 12 4 4 7 5 3 3 6 7 5 3 2 5 6 5 4 4 5 3 3 3 5 3 5 9 4 2 2 4 6 3 3 6 9 13 16 13 10 8 8 10 11 11 10 9 8 7 7 8
2 1 2 3 3 2 3 4 4 5 7 8 9 10 12 11 4 1 1 1 3 6 6 5 4 3 4 4 7 7 8 12 17 20 21 18 8 8 12 8 5 7 6 6 5 1 5 6 2 2 4 5 3 3 5 5 5 4 3 2 4 3 4 6 5 3 5 3 4 3 3 8 12 12 16 15 10 8 8 9 10 9 9 8 7 7 7 7
2 1 2 2 1 2 3 4 4 3 4 3 5 7 11 14 11 7 4 0 3 5 5 6 6 3 2 7 6 8 14 15 15 20 24 17 6 8 11 4 4 6 5 5 5 5 5 4 3 3 4 5 4 5 5 1 3 3 4 3 4 4 3 5 6 4 7 5 5 6 5 11 14 12 13 13 8 8 8 7 8 8 8 8 7 7 7 7
3 1 1 1 1 3 4 5 6 3 2 4 4 3 4 9 13 16 17 11 3 3 3 4 5 4 2 7 7 14 17 11 9 19 26 20 6 5 8 5 4 5 5 3 5 6 4 4 6 4 5 5 4 2 3 5 5 5 5 3 4 6 5 7 7 4 6 7 8 6 6 10 13 13 13 12 9 7 8 7 6 7 7 7 7 7 7 8
3 1 2 2 3 5 6 7 7 5 6 5 3 3 3 3 6 8 13 12 5 2 3 1 1 2 2 5 9 18 14 5 3 17 29 24 7 3 7 7 6 7 6 1 2 4 4 6 5 2 5 7 6 4 5 4 2 3 3 2 5 6 7 8 7 5 5 5 7 5 5 10 13 13 11 10 9 7 8 9 8 7 7 6 7 8 8 8
3 2 3 4 6 6 8 7 8 8 8 9 9 6 2 1 4 2 2 4 2 2 4 1 0 0 4 5 10 16 7 3 5 16 30 26 7 4 7 6 7 6 4 1 2 3 5 6 3 6 7 7 5 2 3 3 1 0 2 4 5 4 7 10 5 3 5 4 6 4 6 12 14 12 9 7 8 7 8 8 8 9 9 7 7 9 10 8
3 3 3 5 7 7 8 9 12 12 13 17 16 9 4 4 4 3 1 4 3 5 5 3 2 2 5 4 9 12 3 6 12 16 30 27 11 5 4 5 7 3 5 4 2 5 6 3 6 7 4 4 3 4 2 2 1 0 1 2 5 4 6 10 4 1 5 3 5 6 7 12 14 11 9 6 5 5 6 6 6 8 9 9 10 10 12 12
3 3 5 7 7 8 8 10 11 12 16 19 15 8 5 4 3 2 2 4 2 4 4 4 4 5 7 3 12 14 6 7 7 13 25 21 8 4 4 6 6 2 6 5 4 4 3 3 5 3 3 3 3 5 6 4 2 1 2 2 5 5 3 5 3 5 8 2 4 7 8 9 9 7 7 4 3 4 6 7 6 6 8 10 11 12 13 16
4 5 6 8 7 8 8 8 8 11 15 16 14 9 6 4 3 4 3 3 1 2 1 1 2 4 5 4 14 12 4 3 2 9 20 14 5 3 4 4 4 4 6 4 6 6 1 5 2 5 6 5 3 5 7 6 6 3 4 2 6 7 3 6 6 9 10 2 1 6 7 6 4 6 6 4 5 8 10 13 15 14 13 12 14 16 17 18
5 6 7 9 6 7 6 5 5 8 9 9 10 8 6 5 2 3 3 4 4 4 3 3 3 6 6 7 15 8 2 3 2 4 14 11 5 3 3 2 4 5 6 2 4 3 1 4 3 5 6 7 5 4 4 3 6 5 4 5 7 8 7 7 7 8 6 3 2 5 5 5 4 5 6 6 9 15 16 20 22 21 20 19 19 20 20 20
6 6 8 9 5 4 3 1 2 5 6 4 4 2 1 2 2 3 3 5 4 4 7 6 4 10 10 8 12 5 2 5 2 5 15 13 5 2 3 3 2 4 3 1 2 1 2 4 4 4 4 6 6 4 1 2 5 6 3 4 5 6 8 9 6 4 3 4 4 5 3 5 4 5 7 8 11 18 20 21 22 20 20 19 18 19 20 21
7 6 8 9 4 2 3 1 1 2 3 3 3 3 2 1 2 1 3 6 4 3 6 6 4 9 10 8 10 4 3 7 5 7 15 14 7 2 4 4 3 3 1 2 3 1 2 7 8 6 5 6 7 5 2 2 4 6 3 2 8 9 8 7 3 1 2 4 5 3 4 2 5 3 8 12 13 18 19 19 19 18 19 19 19 19 20 20
7 6 8 9 4 4 6 2 1 1 3 2 3 2 1 2 2 1 5 5 3 2 1 4 5 7 9 10 10 6 1 6 3 7 16 15 9 3 4 4 1 2 3 5 2 3 2 4 5 4 5 5 4 6 4 3 0 7 5 6 8 7 5 4 2 3 1 2 5 4 1 1 5 3 8 13 14 17 17 16 17 17 18 18 18 20 20 19
7 6 7 7 3 5 6 2 0 2 1 2 2 1 0 1 1 3 6 4 2 2 1 2 6 7 9 10 9 5 3 5 3 7 15 15 14 8 4 1 2 0 5 5 4 4 2 1 1 2 2 2 6 7 3 5 3 8 7 7 4 0 1 1 2 1 2 2 4 6 1 1 3 5 9 10 11 13 12 10 11 13 14 15 16 18 18 17
8 6 5 3 1 5 4 0 2 1 0 1 1 1 1 2 3 6 5 1 1 4 1 3 4 4 9 9 7 7 5 4 3 6 7 7 13 11 4 0 4 4 5 4 2 3 3 1 2 3 2 3 5 7 2 6 5 7 7 6 5 3 3 2 2 2 3 1 5 6 2 1 1 3 6 6 5 8 9 9 11 13 14 14 14 14 15 15
9 8 6 3 3 4 2 1 3 2 1 2 1 1 2 4 5 7 3 1 1 4 4 4 4 4 9 6 4 7 5 5 5 6 6 4 8 10 5 4 4 4 6 6 6 8 6 2 1 2 1 1 3 6 3 1 3 5 5 5 7 5 3 4 4 4 2 5 7 5 3 2 2 1 3 2 3 6 7 9 13 15 15 14 12 12 13 13
11 9 7 6 6 6 4 3 4 2 2 2 1 3 5 5 5 3 1 4 2 3 3 3 4 6 7 4 3 6 5 5 5 5 4 3 5 6 6 5 4 5 7 5 6 9 6 2 3 4 2 1 2 4 5 5 5 6 5 5 6 5 5 6 5 3 2 6 5 4 3 2 2 2 1 1 3 5 6 7 10 13 14 13 12 12 11 10
10 7 5 7 8 8 7 4 3 1 1 1 2 5 7 6 3 1 3 3 2 2 1 1 4 5 5 5 5 6 3 3 6 5 2 2 5 5 5 5 4 4 3 2 4 6 6 6 5 5 2 0 2 3 6 6 5 6 3 3 4 3 6 7 6 4 5 7 5 4 3 3 2 3 4 1 3 4 5 7 8 10 13 13 12 11 11 11
10 8 6 8 11 11 8 4 1 3 3 4 5 7 9 6 0 1 3 3 1 4 2 1 6 5 4 4 4 6 4 3 6 6 4 4 5 5 5 6 7 4 1 1 2 2 5 6 5 3 2 3 3 1 1 3 5 4 2 2 2 1 1 5 4 4 8 10 7 2 2 4 2 4 5 4 1 3 5 6 7 9 10 10 10 11 13 13
10 12 13 14 16 14 10 6 2 7 5 6 8 8 7 3 3 1 1 4 2 4 4 2 5 5 4 4 3 4 2 3 5 6 4 4 3 2 3 4 5 4 3 2 1 0 3 5 7 3 2 1 2 2 2 1 4 2 2 2 1 3 3 3 5 6 5 8 7 2 2 2 4 6 5 3 0 5 8 8 11 13 12 11 11 13 14 12
9 13 17 21 22 16 10 7 5 8 6 8 10 6 2 3 2 2 1 2 1 3 5 5 5 5 5 5 4 6 3 2 4 5 3 2 1 2 1 2 2 3 3 1 1 1 2 6 10 7 4 3 4 3 1 1 2 2 1 2 3 4 5 2 6 3 1 5 5 2 4 2 3 3 4 10 11 14 16 16 17 17 16 16 14 14 15 14
10 11 14 23 25 15 7 7 6 7 6 9 9 3 2 2 1 1 1 1 0 1 3 4 3 3 4 4 5 8 7 3 4 5 3 2 0 2 1 2 1 2 1 2 2 1 1 5 9 4 5 6 4 2 3 3 1 1 2 5 3 1 3 2 2 3 3 6 5 2 8 8 2 3 7 16 16 17 18 18 18 19 20 18 15 16 17 17
3 4 8 21 26 14 5 6 9 9 8 9 8 3 1 1 1 1 0 1 0 2 5 4 1 1 1 2 4 7 6 5 5 5 2 3 2 1 1 2 1 1 1 2 1 1 2 4 8 3 4 9 3 2 4 4 0 1 3 3 1 2 3 2 2 4 5 8 7 5 9 8 2 2 8 14 15 15 16 17 18 19 19 16 14 16 17 17
4 2 4 19 22 11 7 9 11 11 9 7 4 2 1 1 1 1 1 1 1 3 5 1 1 2 1 0 2 4 4 2 3 4 2 2 3 1 3 0 1 0 2 2 3 2 0 1 6 4 3 7 5 4 6 7 4 3 3 3 2 1 4 3 2 1 2 9 9 5 6 4 2 1 5 9 13 14 15 16 16 16 17 15 13 13 14 15
4 3 3 21 18 6 16 24 17 10 8 5 2 2 2 0 1 2 2 2 0 2 2 1 0 2 2 1 1 2 2 1 2 2 1 1 3 3 2 2 1 3 2 2 2 1 1 0 4 6 3 4 5 3 5 7 5 4 4 5 5 2 2 3 3 1 1 8 7 5 8 4 3 1 2 6 11 13 13 15 14 14 15 14 14 13 13 14
5 4 5 22 16 2 10 22 14 5 5 4 1 2 2 1 0 3 3 2 1 1 2 3 2 1 1 2 2 2 2 2 2 1 2 2 1 2 2 2 1 3 3 4 2 1 1 1 3 6 6 5 7 7 4 3 3 1 2 4 5 4 3 5 6 2 1 5 5 7 11 5 3 1 1 6 10 11 12 13 12 13 14 13 13 14 15 15
7 4 7 20 13 10 12 11 4 3 5 3 2 2 1 1 2 2 2 1 1 0 2 3 2 1 2 1 2 1 2 2 2 1 2 3 3 4 2 3 4 1 1 2 2 2 1 2 0 6 7 6 12 12 3 3 3 2 1 3 6 4 4 3 7 6 5 8 7 8 10 4 2 2 2 5 10 10 10 11 10 11 13 13 14 15 15 16
4 2 9 18 7 10 15 7 3 6 4 1 1 1 1 2 1 2 2 2 2 1 3 2 0 0 1 1 1 1 2 2 3 2 2 3 4 5 2 3 3 1 1 1 2 1 1 2 2 6 7 6 10 10 3 4 3 4 5 7 7 3 2 3 5 5 5 7 7 6 7 3 2 5 4 6 14 14 12 13 14 13 12 13 15 14 14 15
3 2 8 20 11 7 9 5 3 5 2 0 3 3 4 2 2 3 3 3 2 1 2 1 1 1 0 1 1 2 2 1 2 2 2 2 4 2 1 3 1 1 1 0 1 1 1 0 2 4 8 10 9 9 8 5 3 4 5 7 7 7 8 3 3 3 2 6 11 8 7 4 3 6 6 10 16 16 15 18 19 17 15 14 15 13 14 15
4 2 4 18 23 15 6 3 6 6 2 2 5 4 4 2 1 1 0 2 1 2 1 1 1 1 1 1 1 2 2 1 2 3 3 2 4 2 2 0 1 1 1 1 1 1 1 1 2 2 3 8 9 10 10 9 8 4 4 7 9 10 11 6 2 3 4 9 12 7 7 9 9 9 10 13 15 16 19 22 21 19 18 17 15 13 13 14
4 4 3 9 15 12 4 1 5 6 4 4 4 3 3 2 1 2 2 1 1 1 2 2 2 2 2 4 4 4 3 1 2 3 3 4 5 3 1 1 1 1 1 2 1 2 1 0 3 5 5 6 8 9 11 11 8 5 5 8 8 7 9 7 4 4 6 10 9 7 12 17 14 11 12 13 14 17 22 23 22 20 19 19 17 16 16 15
3 3 2 2 4 5 5 5 5 4 3 4 3 2 3 2 3 2 1 0 1 1 2 1 3 3 2 5 5 3 5 4 3 2 3 4 4 5 3 3 3 3 3 1 0 2 3 3 4 7 9 10 9 11 15 10 4 4 5 6 7 7 9 9 6 5 9 8 7 11 18 20 18 14 13 13 15 18 20 21 20 20 19 18 17 18 20 20
3 3 1 1 2 2 4 4 4 6 6 4 3 2 3 4 3 1 2 3 2 2 1 2 4 4 1 2 2 2 5 6 4 4 3 3 3 6 7 3 2 4 4 2 1 3 3 3 4 3 6 10 9 12 13 6 3 4 5 7 7 7 8 8 5 7 9 8 10 17 20 20 17 13 12 14 17 18 19 19 18 18 18 18 19 21 22 21
4 4 1 3 4 3 2 3 4 7 8 5 4 3 3 3 3 1 2 3 4 4 3 2 6 6 2 2 1 1 3 3 5 6 2 3 4 3 5 3 1 3 5 4 3 1 2 4 4 3 8 9 7 9 9 2 3 4 6 6 7 7 7 7 6 9 11 11 14 18 21 19 14 10 13 18 17 16 16 17 18 19 19 18 20 21 21 20
3 4 1 4 5 3 3 4 4 5 6 5 3 2 1 1 2 3 1 1 2 4 4 3 6 7 2 3 4 4 5 4 6 7 3 2 5 1 2 3 2 5 7 5 4 3 2 4 4 4 8 11 7 6 4 4 7 5 5 7 9 11 11 10 8 10 11 12 16 18 19 16 9 7 14 17 16 16 18 20 21 20 20 20 20 20 20 18
6 6 7 7 4 4 4 3 3 4 4 4 2 1 1 0 1 2 1 2 2 1 2 3 6 6 2 1 4 8 8 6 8 11 7 4 6 3 1 1 1 5 7 4 3 4 3 3 6 6 7 11 9 12 13 3 9 7 5 8 12 13 12 11 9 9 11 15 18 17 14 11 8 9 14 16 17 19 21 22 21 19 21 23 21 20 19 17
8 6 6 7 4 3 3 3 3 4 3 2 1 1 1 2 1 0 1 1 2 2 3 2 2 2 3 4 6 7 7 6 8 9 6 5 6 4 3 3 1 1 2 1 1 3 2 2 5 4 5 10 12 15 15 6 2 1 1 5 10 14 15 15 12 12 14 14 14 14 11 10 11 12 15 18 20 21 21 19 18 18 22 23 19 17 18 17
Wind_Direction
316 336 346 38 74 59 55 28 4 352 348 341 336 329 325 323 326 331 334 338 338 344 358 1 355 339 311 288 297 315 354 19 35 36 40 15 360 360 354 346 343 345 346 346 353 357 355 1 357 359 8 34 15 342 360 16 60 48 95 149 257 208 211 198 195 205 193 271 275 291 237 206 272 287 271 318 235 249 278 259 254 264 256 252 256 268 302 269
306 84 122 115 107 86 62 17 7 356 348 339 336 332 333 337 339 344 344 342 340 352 11 4 5 7 358 335 325 351 1 27 44 35 23 8 6 2 354 352 349 347 350 352 359 9 13 344 335 2 26 31 350 353 1 350 64 92 128 189 242 207 219 203 197 211 204 265 274 285 260 207 242 264 13 287 278 302 291 269 247 259 263 260 258 254 247 194
148 134 136 134 152 130 45 9 3 351 344 339 340 342 346 352 352 355 352 346 347 11 18 13 21 31 37 31 14 4 355 28 42 13 6 9 8 3 358 355 351 351 353 356 360 7 10 319 312 21 45 26 337 358 22 356 336 150 136 255 247 218 244 242 217 222 225 257 290 293 285 220 245 255 85 261 291 299 260 259 236 240 252 252 253 243 217 193
145 142 150 166 175 130 16 3 356 346 344 345 348 354 356 358 359 0 359 358 13 27 22 23 32 39 44 36 16 351 4 43 18 335 0 10 8 3 359 354 353 350 347 353 359 3 11 354 357 61 63 9 327 6 55 335 318 162 151 209 233 197 268 262 225 229 237 227 264 291 333 294 266 227 221 259 305 288 256 248 231 234 245 246 254 238 201 190
149 150 170 187 166 57 11 358 350 346 347 350 355 356 355 354 355 357 1 8 30 26 24 29 30 35 36 25 11 347 26 52 319 333 3 7 7 1 353 353 351 344 346 352 353 4 17 32 59 51 48 2 342 19 316 301 75 208 218 214 224 167 272 272 226 233 230 159 264 292 309 280 277 235 220 220 246 260 260 243 217 231 242 244 253 234 197 194
154 166 179 172 96 14 1 350 346 348 347 351 352 347 345 345 346 348 354 1 27 26 26 24 19 16 7 0 7 7 77 104 302 343 2 5 8 360 358 355 346 346 348 351 358 20 26 24 50 53 35 23 357 5 271 311 43 274 275 299 265 196 251 279 252 240 203 186 248 251 271 276 310 290 224 206 228 242 258 259 217 234 243 249 262 225 201 210
163 170 158 123 36 6 353 347 345 345 342 344 338 332 331 335 339 341 347 7 35 27 21 17 10 356 336 318 1 33 77 134 317 353 359 8 10 4 13 13 359 347 338 1 12 35 62 36 46 110 70 29 342 269 282 316 11 188 268 311 292 216 238 263 281 274 212 221 239 230 312 287 267 281 292 228 242 247 259 274 268 258 257 255 262 231 220 221
162 153 133 73 13 352 342 341 341 339 336 330 325 325 326 333 342 348 28 105 66 31 19 16 7 353 336 278 122 44 43 321 338 2 1 8 11 8 17 20 15 1 357 31 19 49 89 47 45 130 65 18 178 283 326 337 3 150 235 283 292 266 258 277 298 289 260 240 248 286 283 258 238 257 301 260 260 263 267 277 271 268 274 261 246 240 232 229
154 153 142 14 343 338 336 338 338 333 329 326 327 328 327 338 352 17 83 103 64 38 21 17 7 1 359 92 96 60 333 321 350 3 1 3 5 4 6 13 17 16 43 49 29 70 101 88 201 153 133 171 169 299 332 355 335 209 230 272 284 292 293 308 303 288 276 251 234 258 265 260 246 262 278 260 260 278 297 288 277 277 282 269 253 247 233 229
159 169 194 325 328 333 333 334 333 329 335 335 332 335 338 351 20 58 85 85 57 36 20 20 15 23 34 46 72 56 322 338 360 360 355 352 356 352 352 5 13 21 47 53 41 61 99 178 189 151 134 119 153 300 303 46 243 221 254 275 276 292 298 311 300 305 307 264 200 236 272 273 262 327 272 263 258 319 331 302 297 294 276 274 266 259 238 226
175 191 260 316 326 329 330 333 332 338 344 341 344 354 7 34 66 71 76 73 43 30 24 24 31 50 57 61 79 58 336 350 357 355 352 341 348 344 341 359 8 24 43 59 50 52 64 177 169 127 110 40 295 328 265 213 219 233 304 300 296 318 308 332 335 327 348 307 200 209 276 283 65 162 245 268 289 339 322 300 303 299 279 275 269 265 248 229
189 217 287 313 318 323 330 334 339 352 350 352 5 26 44 67 93 78 77 68 23 25 26 23 31 53 54 57 76 30 343 349 352 360 2 345 340 334 333 356 8 29 49 73 68 57 57 113 118 96 51 280 295 350 222 211 358 236 39 344 315 356 355 355 357 325 359 332 282 202 297 308 167 217 248 274 296 310 312 299 301 296 283 276 269 269 258 245
201 245 287 303 315 329 335 340 351 360 357 3 25 52 57 68 99 105 109 73 11 26 22 20 22 11 54 47 14 7 350 347 358 6 5 353 344 330 324 354 11 32 51 74 86 60 45 37 91 103 130 83 306 319 75 18 11 288 30 34 330 360 338 333 358 324 353 322 319 28 316 308 285 267 271 269 298 319 319 308 307 301 294 285 276 276 269 259
219 261 286 306 326 336 338 346 357 8 14 20 41 61 59 61 76 102 135 85 42 25 15 18 18 34 78 34 272 358 352 351 358 353 357 354 353 357 360 5 19 46 44 50 64 42 28 41 86 93 106 76 327 360 30 3 13 335 352 37 26 5 291 315 340 340 7 344 360 39 237 283 293 299 302 219 338 336 317 310 313 307 303 298 290 287 283 275
233 265 299 322 334 344 345 354 5 19 21 24 50 57 43 46 63 95 123 94 49 24 16 28 28 57 81 15 304 346 345 351 352 350 354 351 349 348 353 0 14 50 21 13 44 37 31 64 78 56 324 3 40 44 16 344 11 23 6 339 348 358 288 314 322 66 25 299 4 47 246 276 283 293 301 311 353 345 312 308 312 312 311 311 311 308 299 295
239 269 313 333 345 355 351 1 11 26 36 56 73 64 52 55 75 97 102 105 47 20 22 33 15 54 95 351 330 345 347 346 347 352 355 349 349 343 345 353 1 12 13 28 76 72 47 59 71 63 4 10 42 57 35 10 352 3 39 298 286 309 314 319 307 116 73 300 345 29 244 282 280 289 303 317 338 345 324 314 315 318 318 320 320 320 314 309
226 244 317 349 4 3 6 17 20 49 75 85 71 59 58 55 56 122 113 122 49 12 28 35 354 49 80 350 335 342 335 334 344 355 359 357 7 10 359 358 360 2 25 57 65 71 36 40 60 51 37 35 42 67 54 17 323 322 24 323 271 266 294 316 305 326 40 46 330 322 234 260 273 287 301 308 329 345 331 321 320 321 325 327 327 330 334 328
194 240 346 23 29 29 41 29 9 41 88 67 30 46 65 63 64 74 58 330 277 325 13 14 7 66 23 346 342 318 315 323 347 1 5 10 21 21 20 12 355 11 34 39 28 28 19 20 56 40 17 23 23 54 66 316 260 277 307 308 301 287 253 280 283 313 19 18 309 306 276 268 279 292 297 298 327 346 325 319 319 325 335 332 335 343 342 339
187 232 62 100 103 74 56 22 6 2 355 342 348 22 71 68 65 62 52 49 42 11 34 344 15 99 267 318 317 317 315 309 353 9 8 10 7 25 35 29 23 47 57 24 4 21 26 23 40 32 352 338 338 83 153 228 215 231 256 233 277 294 274 263 264 294 9 345 297 282 275 280 291 298 298 303 325 336 320 334 338 338 348 339 341 346 341 341
184 162 138 128 104 81 37 10 4 1 2 4 5 24 44 42 44 45 34 42 70 88 99 163 33 96 293 303 315 335 334 279 359 19 11 4 352 9 18 17 28 46 56 79 325 12 73 58 30 304 284 288 280 226 216 258 241 227 268 262 269 282 286 284 275 288 3 346 276 256 285 290 290 290 288 304 329 340 341 353 351 343 343 334 338 338 337 333
172 137 137 112 100 66 28 25 38 45 49 56 65 66 85 119 74 80 346 30 50 34 70 102 258 338 291 281 318 340 342 258 354 19 11 3 3 22 357 12 37 32 17 276 281 358 62 62 341 262 246 261 289 258 232 277 290 258 286 286 294 271 273 293 291 283 7 13 280 304 328 296 291 292 294 317 337 342 352 357 340 333 333 328 337 336 332 323
147 124 120 109 96 57 45 65 69 72 70 65 71 84 135 149 115 148 155 83 32 10 36 1 32 11 297 275 331 340 357 5 354 360 3 4 15 31 360 32 53 15 342 7 13 4 36 37 292 279 255 272 352 60 56 292 261 13 309 315 317 295 287 301 296 299 4 15 285 327 334 293 291 293 295 314 323 318 338 345 320 320 328 331 337 336 333 331
128 110 111 116 93 59 67 81 77 76 70 66 75 97 120 116 133 155 86 93 49 357 15 15 55 14 347 2 348 351 42 38 352 342 357 5 16 40 57 44 45 7 352 25 80 64 37 313 295 333 29 6 351 27 32 2 3 261 264 352 312 309 344 306 303 342 333 302 251 310 310 288 301 313 304 304 305 320 339 339 328 330 328 325 334 340 341 340
116 103 117 128 92 65 87 97 83 70 66 71 78 88 104 91 126 136 85 82 42 358 19 39 92 29 11 359 347 355 72 56 353 339 355 9 6 18 74 56 52 22 352 26 85 100 196 277 332 47 35 33 359 356 29 21 351 294 226 248 297 305 286 247 287 325 327 317 223 327 323 302 336 348 327 315 334 354 5 3 3 4 358 352 357 1 359 356
112 110 130 139 101 72 96 107 81 58 54 69 73 75 91 71 82 146 105 60 13 335 349 8 33 19 353 341 351 359 132 24 66 336 352 12 4 360 36 41 77 17 335 25 57 57 288 290 1 29 15 37 31 355 30 41 352 320 247 228 271 298 286 269 300 324 347 359 336 22 3 299 333 358 325 323 358 13 19 18 14 10 10 12 11 8 5 3
116 124 142 149 122 65 72 101 54 39 31 44 46 19 75 53 48 153 124 61 26 328 351 360 4 1 350 343 346 353 75 357 333 1 6 11 3 103 47 348 45 10 314 147 34 358 315 335 43 56 20 26 25 360 337 89 20 326 248 221 272 298 297 298 322 344 357 305 298 60 104 264 321 7 350 352 22 25 21 19 15 10 12 13 10 7 6 5
134 141 154 161 159 29 3 308 274 18 27 19 346 317 263 276 357 113 95 45 19 322 348 343 339 357 351 337 337 21 70 318 317 23 12 5 350 91 64 1 11 6 342 91 26 12 315 346 21 37 20 18 14 351 286 128 24 294 242 360 316 305 296 291 310 214 239 285 310 32 122 227 295 328 9 14 29 29 21 15 11 10 10 8 7 7 5 3
146 147 159 173 197 324 335 312 213 88 66 356 329 340 219 267 305 82 84 64 347 324 8 313 327 349 341 341 1 60 80 316 10 1 350 9 12 29 54 14 99 323 354 89 45 311 311 347 358 9 15 9 339 315 271 163 296 267 273 329 302 290 282 253 218 216 235 348 318 316 95 227 285 327 15 19 26 20 12 8 5 7 7 5 5 4 3 0
139 138 157 179 225 321 333 319 106 76 64 334 356 71 157 322 354 60 73 91 311 328 152 322 339 342 344 353 11 39 2 358 59 328 343 17 12 17 76 352 138 193 336 94 128 289 287 229 203 111 61 309 292 298 243 166 238 281 305 311 283 15 31 185 140 168 29 26 271 274 298 281 310 358 7 13 25 8 356 360 359 2 5 4 6 1 360 359
120 117 133 165 288 329 325 357 39 27 296 349 14 213 283 360 55 59 47 74 324 320 297 19 357 339 4 7 351 3 14 358 344 334 354 17 354 7 94 167 87 90 341 29 100 296 316 264 178 134 159 224 298 309 224 179 247 314 351 332 321 12 46 45 71 75 36 317 250 248 216 136 314 16 27 20 5 336 337 350 352 359 4 4 5 1 357 357
107 98 93 69 26 1 327 316 1 351 323 354 328 220 26 25 63 84 65 285 310 335 351 6 342 2 26 30 342 345 1 334 336 13 10 357 356 7 36 18 32 47 4 5 352 339 4 34 231 297 279 132 2 323 296 227 296 349 8 354 340 337 10 13 1 34 31 278 268 242 188 153 239 240 64 35 313 324 339 349 351 356 359 358 359 358 355 354
101 90 76 48 33 22 6 326 315 328 314 302 23 69 67 40 33 82 307 318 336 343 360 327 320 359 7 15 349 325 335 335 345 43 26 11 33 24 34 28 355 4 11 9 345 343 352 303 293 331 330 71 12 330 327 341 6 8 4 22 8 343 356 349 333 359 254 259 258 207 211 262 202 187 202 229 352 351 345 346 350 352 352 352 353 351 350 352
98 86 62 35 23 11 1 332 295 330 304 229 92 58 73 75 41 272 280 330 18 324 335 293 313 337 343 4 357 326 339 346 343 17 33 53 52 26 24 31 30 28 356 342 359 346 331 306 328 4 331 283 71 17 344 330 344 355 360 42 24 5 351 325 312 321 293 282 263 193 236 282 155 158 210 186 21 343 341 349 348 351 350 346 344 344 347 353
89 68 47 27 18 9 1 347 288 155 122 90 82 56 65 81 197 252 291 280 290 336 360 2 323 335 18 29 346 335 4 344 344 11 5 19 37 7 353 0 21 56 97 15 26 4 353 324 330 17 314 330 11 123 245 281 306 320 186 137 58 109 314 294 271 286 301 302 295 267 240 255 188 161 182 167 138 338 356 351 347 355 352 340 340 349 351 354
83 58 42 26 17 12 9 8 133 163 144 78 66 60 75 109 244 204 274 271 307 337 327 352 357 10 11 340 326 2 22 305 343 24 22 30 46 352 347 331 352 42 68 26 310 26 30 289 276 289 256 284 305 252 157 303 308 292 167 96 18 186 181 243 239 236 272 296 297 293 245 232 134 142 150 139 37 7 4 355 359 357 353 351 352 358 357 353
74 55 39 25 16 10 14 35 106 142 126 85 68 55 107 187 222 147 230 308 16 324 324 355 22 29 351 321 332 354 351 282 346 13 18 49 166 280 320 250 309 39 72 98 263 352 51 278 284 317 315 223 207 249 276 282 303 329 340 304 253 185 149 204 271 273 323 280 273 275 279 306 115 159 28 18 3 3 2 355 357 352 352 357 358 0 357 349
75 62 44 23 12 4 19 56 97 120 95 78 78 81 194 194 140 157 255 359 355 300 37 34 16 22 349 321 323 334 340 343 3 9 352 3 265 247 303 259 220 69 115 176 237 263 152 280 290 306 300 271 214 225 272 236 173 97 294 277 256 134 101 125 278 334 348 272 264 301 286 288 261 254 2 15 1 356 355 348 348 349 352 354 354 357 353 346
64 67 50 17 6 4 23 69 89 99 87 69 74 118 156 37 14 247 241 96 234 25 59 63 3 47 39 328 308 317 339 353 358 3 344 343 328 183 110 304 217 101 324 211 212 275 149 292 292 234 258 289 311 45 318 298 237 184 262 284 2 350 314 345 330 312 311 282 275 286 279 279 283 300 354 7 354 347 346 343 345 346 348 346 345 349 346 341
358 63 41 359 0 23 67 84 84 70 70 73 76 119 107 28 330 303 327 65 129 79 61 49 307 21 48 78 286 298 334 351 334 346 18 6 328 189 115 33 269 358 311 181 161 255 106 314 293 268 261 302 338 22 339 319 320 343 330 324 15 178 225 268 299 265 286 285 283 287 282 283 95 11 345 360 350 342 339 340 339 338 340 338 336 338 337 335
13 98 13 351 359 62 72 69 68 46 60 96 144 127 69 261 279 318 333 357 76 109 84 190 254 11 334 339 303 279 327 316 276 322 348 346 318 314 85 116 278 320 343 70 112 261 34 102 274 286 306 341 343 323 309 305 309 344 341 315 318 295 238 284 285 134 262 285 292 300 290 283 121 124 341 4 354 345 337 333 331 331 333 332 331 331 329 328
38 94 333 350 0 152 64 56 55 38 70 77 94 97 63 169 140 338 325 340 350 157 139 149 130 84 225 331 327 253 307 306 265 276 274 290 308 309 345 124 160 326 5 36 34 358 10 177 255 300 325 346 309 276 269 257 242 234 250 291 322 322 347 326 294 323 2 292 300 299 294 292 133 155 12 17 357 341 328 323 321 324 327 327 330 330 326 325
51 89 323 348 19 93 73 53 27 43 83 58 44 98 35 99 89 348 322 356 30 65 76 105 109 132 180 257 289 249 306 293 275 294 255 247 221 233 289 96 118 92 23 359 311 255 134 112 259 288 283 278 274 276 309 122 160 126 121 10 10 15 29 336 290 315 321 294 298 293 296 307 171 245 340 11 346 327 315 319 321 325 330 329 327 324 321 322
69 114 354 354 12 95 73 62 348 32 71 162 62 78 359 69 77 347 359 20 13 31 32 48 131 37 169 238 272 261 303 254 227 265 271 262 249 235 216 129 123 98 84 351 307 292 72 76 357 297 289 283 268 276 346 96 122 70 52 32 32 26 345 249 260 313 304 300 331 311 295 313 212 245 272 339 341 334 328 336 336 330 328 325 322 320 318 319
108 164 9 16 34 105 81 88 108 64 78 168 52 19 351 45 71 13 14 7 358 74 51 359 272 350 328 175 157 239 309 331 234 267 294 259 259 265 149 158 175 43 69 318 332 339 314 334 32 342 323 330 331 327 337 348 357 33 58 46 44 25 1 321 257 336 326 339 350 323 289 311 292 284 310 341 342 335 333 338 336 329 324 321 320 318 316 317
68 87 337 20 44 68 88 141 134 117 135 91 61 20 356 34 66 11 94 13 346 169 101 334 325 5 322 36 25 291 314 359 253 303 351 278 266 307 36 283 283 65 97 302 13 10 267 214 111 67 323 319 324 323 321 320 326 349 52 38 33 31 21 14 333 354 350 330 331 306 284 304 298 305 334 342 334 330 332 334 330 324 321 319 318 315 313 314
67 53 328 4 33 53 71 111 96 105 134 109 66 19 24 50 307 249 165 78 330 138 47 352 350 14 3 27 21 316 294 254 268 320 326 278 276 291 18 45 21 59 58 332 13 84 75 235 197 180 196 254 273 279 290 303 317 339 11 18 25 33 27 27 35 7 326 309 303 292 305 308 301 310 334 333 325 329 333 330 323 320 320 319 319 316 313 313
90 77 56 5 8 28 39 23 36 74 119 114 94 22 9 354 312 296 146 110 312 48 48 24 33 36 360 13 24 308 299 324 323 299 261 257 272 288 310 83 68 355 357 348 343 89 61 309 244 194 207 237 257 273 287 304 347 11 7 17 21 21 24 33 33 339 313 303 294 302 308 307 304 311 324 323 320 327 329 323 317 316 316 316 316 314 314 313
73 125 188 96 57 37 37 25 40 62 58 70 101 70 12 6 10 359 311 336 6 21 33 16 16 27 329 350 36 297 312 337 323 288 278 298 317 320 329 26 51 338 354 22 349 92 98 279 258 216 243 248 250 267 281 302 68 77 35 18 5 8 22 23 357 317 312 299 291 302 306 304 303 308 316 319 322 325 322 315 312 311 311 313 314 314 313 311
80 107 334 24 81 99 50 24 45 57 50 52 68 55 43 40 25 305 277 354 353 350 39 17 331 340 315 217 163 264 302 335 309 292 287 314 318 328 323 319 332 352 16 20 343 80 117 278 277 300 299 285 263 260 264 237 116 77 44 18 357 352 356 353 327 311 312 296 291 303 306 304 303 309 317 320 322 321 315 310 311 311 310 312 313 313 311 308
125 132 109 56 70 62 29 25 41 52 42 43 58 46 47 64 354 314 280 76 344 336 24 8 312 319 308 189 180 249 255 221 256 264 236 315 309 258 248 279 298 348 11 25 336 346 28 307 312 348 321 312 311 307 314 122 126 94 47 17 4 354 342 335 324 317 314 303 302 307 306 304 308 317 317 317 319 319 316 315 316 315 312 313 311 309 308 307
97 120 129 107 63 11 8 17 47 66 38 18 52 68 346 309 257 309 279 190 187 277 326 318 308 316 339 178 229 260 260 228 235 248 237 250 268 236 219 303 43 353 357 25 336 348 26 317 327 4 331 313 329 339 341 38 129 118 55 21 9 357 338 325 320 318 312 306 307 308 306 310 317 316 315 315 316 317 315 314 316 314 312 311 310 309 310 311
95 95 110 102 72 9 9 8 24 69 65 345 345 149 307 300 264 323 327 247 218 226 221 208 255 314 352 321 293 286 280 256 248 257 252 243 255 264 289 310 41 32 324 8 340 340 48 350 327 355 322 309 328 336 330 334 94 47 52 49 16 356 338 326 323 319 311 306 308 310 309 314 316 317 319 317 317 317 312 311 314 312 309 307 307 312 315 313